[[{"header":{"parameterUnit":"m.s-1","parameterCategory":1,"la1":30.2991,"la2":30.254,"lo1":-89.0895,"lo2":-89.0444,"dy":0.0017,"dx":0.0017,"nx":28,"ny":28,"refTime":"2025-07-29T21:00:00:Z","depth":0,"parameterNumber":2,"parameterNumberName":"U-component_of_WINDS"},"data":[0,0,0,0,0,0,0,0,0,0,0,0,0,0,0,0,0,0,0,0,0,0,0,0,0,0,0,0,0,0,0,0,0,0,0,0,0,0,0,0,0,0,0,0,0,0,0,0,0,0,0,0,0,0,0,0,0,0,2.1188,2.1191,0,2.1417,2.142,2.1422,2.1482,2.148,2.1479,2.1477,2.1717,2.1724,2.1732,0,0,0,0,0,0,0,0,0,0,0,0,0,2.0806,2.0813,2.1188,2.1191,2.1194,2.1417,2.142,2.1423,2.1482,2.148,2.1478,2.1477,2.1714,2.1724,2.1733,0,0,0,0,0,0,0,0,0,0,0,0,0,2.0997,2.0815,2.1188,2.125,2.1258,2.1416,2.142,2.1424,2.1482,2.148,2.1478,2.1476,2.1711,2.1723,2.1734,2.1848,0,0,2.1769,2.1774,0,0,0,0,0,0,0,0,2.0986,2.1011,2.1238,2.1246,2.1255,2.1418,2.1373,2.1566,2.1483,2.1397,2.1477,2.1475,2.162,2.1639,2.1687,2.186,2.187,2.177,2.1777,2.1782,2.1786,0,0,0,0,0,0,0,2.0973,2.1002,2.1279,2.1241,2.1252,2.1268,2.1293,2.141,2.1518,2.1404,2.1409,2.1435,2.1624,2.1675,2.1693,2.1873,2.177,2.178,2.1788,2.1792,2.2152,2.2154,0,0,0,0,0,0,2.0948,2.099,2.1272,2.1286,2.1113,2.1276,2.1304,2.1368,2.1517,2.1537,2.1437,2.1437,2.1656,2.1679,2.1701,2.1845,2.1782,2.1793,2.18,2.2149,2.2152,2.2155,0,0,0,0,0,0,2.094,2.0973,2.1263,2.114,2.1178,2.1285,2.1357,2.1374,2.1425,2.1541,2.1561,2.1469,2.1656,2.1685,2.1811,2.1854,2.1798,2.1809,2.2146,2.215,2.2154,2.2133,0,0,0,0,0,0,2.0929,2.097,2.1013,2.114,2.1184,2.1367,2.1359,2.138,2.1444,2.1447,2.1577,2.1596,2.1656,2.1793,2.1822,2.1869,2.1818,2.2143,2.2148,2.2152,2.213,2.2136,2.214,0,0,0,0,0,2.0915,2.1,2.1015,2.1049,2.124,2.1369,2.1395,2.1461,2.1447,2.1493,2.1567,2.1592,2.1844,2.1806,2.1839,2.189,2.214,2.2146,2.2152,2.2128,2.2135,2.214,0,0,0,0,0,0,2.0878,2.1017,2.1036,2.1164,2.1254,2.1379,2.1439,2.1466,2.1563,2.1561,2.164,2.1669,2.179,2.1853,2.1807,2.2008,2.1992,2.2005,2.1963,2.197,2.1975,2.1958,2.1828,0,0,0,0,0,2.0884,2.0975,2.1093,2.1195,2.1239,2.133,2.1389,2.1432,2.1529,2.1568,2.1652,2.1746,2.1847,2.1912,2.2011,2.2139,2.2169,2.219,2.2195,2.2199,2.2209,2.2282,2.2293,2.2174,2.2174,2.2174,0,0,2.0899,2.0986,2.104,2.1189,2.1264,2.1358,2.1362,2.1462,2.1533,2.1584,2.1707,2.1772,2.1883,2.201,2.207,2.2066,2.2248,2.2206,2.2208,2.2217,2.2289,2.23,2.231,2.2178,2.2178,2.2177,0,0,2.0973,2.1048,2.1141,2.1215,2.1327,2.1388,2.141,2.153,2.1575,2.1699,2.1739,2.1825,2.1997,2.2074,2.2136,2.2238,2.2265,2.2268,2.2295,2.2365,2.2374,2.2383,2.242,2.2432,2.2278,2.2278,2.2278,0,2.0978,2.112,2.1186,2.1283,2.1348,2.1396,2.1491,2.156,2.17,2.1744,2.1736,2.1952,2.203,2.2176,2.22,2.2249,2.2277,2.2254,2.2367,2.2376,2.2385,2.2422,2.2435,2.2278,2.2278,2.2278,2.2278,0,2.1121,2.1218,2.128,2.1411,2.1483,2.1579,2.166,2.1725,2.176,2.1822,2.1948,2.2043,2.2162,2.2199,2.2237,2.2351,2.2345,2.2351,2.2337,2.2395,2.2431,2.2445,2.2277,2.2277,2.2277,2.2277,0,0,2.1181,2.1345,2.1367,2.1426,2.1553,2.1631,2.1728,2.1842,2.1897,2.1991,2.2076,2.2219,2.2225,2.2295,2.2341,2.2402,2.2477,2.2401,2.2405,2.2412,2.261,2.2605,2.262,2.2494,2.2497,2.25,2.2601,0,2.1272,2.1447,2.1508,2.1653,2.1744,2.179,2.1875,2.1963,2.2022,2.2109,2.2176,2.2276,2.2276,2.2318,2.2381,2.2454,2.2518,2.2448,2.2576,2.258,2.2548,2.2638,2.2634,2.2725,2.2615,2.2617,2.2619,0,2.1403,2.1496,2.1649,2.1763,2.1804,2.1879,2.1989,2.2071,2.2171,2.221,2.2287,2.2328,2.2433,2.2411,2.2558,2.2509,2.2565,2.2609,2.2614,2.263,2.2604,2.2658,2.2756,2.2769,2.2641,2.264,2.2638,0,2.1432,2.1596,2.1709,2.1759,2.1894,2.1946,2.2005,2.2103,2.2167,2.2263,2.2306,2.2413,2.2472,2.2555,2.2624,2.2602,2.2765,2.2749,2.2802,2.28,2.2836,2.2833,2.2945,2.2869,2.2869,2.2869,2.2868,0,2.1528,2.162,2.1724,2.1793,2.1898,2.1967,2.207,2.2132,2.2218,2.2302,2.2348,2.2425,2.2511,2.2601,2.2656,2.2769,2.2795,2.2831,2.2845,2.2828,2.2823,2.2867,2.2863,2.2872,2.2872,2.2871,2.287,0,2.1579,2.1652,2.1778,2.1895,2.1926,2.1999,2.21,2.217,2.223,2.2335,2.2364,2.2459,2.2566,2.2643,2.2782,2.2819,2.2941,2.2954,2.2907,2.2914,2.2963,2.2957,2.3108,2.3132,2.3038,2.3039,2.3039,0,2.1637,2.1708,2.1832,2.189,2.1949,2.2042,2.2107,2.2178,2.2244,2.2363,2.2419,2.2528,2.262,2.279,2.2873,2.2979,2.2996,2.3041,2.3012,2.2993,2.2998,2.2993,2.3001,2.3046,2.3046,2.3047,2.3047,0,2.1731,2.1763,2.1854,2.1958,2.2034,2.2119,2.2206,2.2251,2.2337,2.241,2.2519,2.2589,2.273,2.2839,2.2953,2.3016,2.3047,2.3055,2.3073,2.3057,2.3027,2.3045,2.292,2.3052,2.3052,2.3051,2.3051,2.3051,2.1788,2.1854,2.1951,2.2051,2.2122,2.2202,2.2273,2.2341,2.2432,2.2551,2.2587,2.27,2.2799,2.2954,2.3018,2.3109,2.3107,2.3133,2.314,2.3146,2.3145,2.3011,2.313,2.313,2.313,2.313,2.313,0,2.1886,2.195,2.2041,2.2159,2.2238,2.2256,2.2353,2.2418,2.2516,2.2604,2.2692,2.2818,2.2923,2.3013,2.3123,2.3178,2.3195,2.3205,2.3202,2.3216,2.314,2.3114,2.3189,2.3189,2.3189,2.3189,2.3189,2.3189,2.1946,2.2058,2.2101,2.2249,2.2313,2.2423,2.2476,2.255,2.262,2.2757,2.2844,2.2901,2.299,2.3106,2.3204,2.3228,2.3267,2.3273,2.3301,2.3229,2.3222,2.3215,2.3191,2.3281,2.3281,2.337,2.337,2.3371]},{"header":{"parameterUnit":"m.s-1","parameterCategory":1,"la1":30.2991,"la2":30.254,"lo1":-89.0895,"lo2":-89.0444,"dy":0.0017,"dx":0.0017,"nx":28,"ny":28,"refTime":"2025-07-29T21:00:00:Z","depth":0,"parameterNumber":3,"parameterNumberName":"V-component_of_WINDS"},"data":[0,0,0,0,0,0,0,0,0,0,0,0,0,0,0,0,0,0,0,0,0,0,0,0,0,0,0,0,0,0,0,0,0,0,0,0,0,0,0,0,0,0,0,0,0,0,0,0,0,0,0,0,0,0,0,0,0,0,3.9866,3.9866,0,3.9892,3.9892,3.9892,3.9792,3.9789,3.9786,3.9783,3.9807,3.981,3.9814,0,0,0,0,0,0,0,0,0,0,0,0,0,3.9727,3.973,3.9866,3.9866,3.9867,3.9892,3.9892,3.9892,3.9792,3.9789,3.9785,3.9782,3.9806,3.981,3.9814,0,0,0,0,0,0,0,0,0,0,0,0,0,3.9773,3.9731,3.9866,3.982,3.9816,3.9892,3.9892,3.9893,3.9793,3.9789,3.9784,3.978,3.9804,3.9809,3.9814,3.9935,0,0,3.983,3.9832,0,0,0,0,0,0,0,0,3.9771,3.9779,3.9826,3.9823,3.9819,3.9834,3.9851,3.9907,3.9794,3.9802,3.9783,3.9778,3.9819,3.9823,3.9837,3.9936,3.9937,3.983,3.9833,3.9836,3.9837,0,0,0,0,0,0,0,3.9768,3.9777,3.9876,3.9827,3.9823,3.9797,3.9798,3.9862,3.9835,3.9801,3.9794,3.9798,3.9816,3.9833,3.9837,3.9937,3.983,3.9835,3.9838,3.984,4.0134,4.0138,0,0,0,0,0,0,3.9771,3.9775,3.9875,3.9877,3.9784,3.9803,3.9805,3.9834,3.9834,3.983,3.9802,3.9793,3.9826,3.9831,3.9838,3.9977,3.9836,3.984,3.9843,4.0129,4.0135,4.014,0,0,0,0,0,0,3.9768,3.9781,3.9874,3.9824,3.9834,3.981,3.9843,3.9837,3.9853,3.9835,3.9829,3.9824,3.9823,3.9831,3.9911,3.9976,3.9843,3.9847,4.0123,4.0131,4.0137,4.0258,0,0,0,0,0,0,3.9765,3.9781,3.9827,3.9826,3.9837,3.9949,3.9847,3.984,3.9862,3.9851,3.9854,3.985,3.982,3.9904,3.9916,3.9981,3.9851,4.0117,4.0127,4.0135,4.0248,4.0268,4.0285,0,0,0,0,0,3.976,3.9859,3.983,3.9842,3.9894,3.9952,3.9959,3.9923,3.9868,3.9913,3.9902,3.985,3.9968,3.9913,3.9926,3.9993,4.0113,4.0124,4.0134,4.0239,4.0264,4.0285,0,0,0,0,0,0,3.9868,3.9858,3.9825,3.9927,3.9942,3.9935,3.9992,3.9951,3.998,3.9968,3.9922,3.9923,4.0012,4.0011,3.995,4.0109,4.0031,4.0044,4.0106,4.0129,4.0148,4.0145,3.9855,0,0,0,0,0,3.9904,3.9953,3.9941,4.0032,4.0041,4.0016,4.004,4.0011,4.0023,4.0029,4.0023,4.0036,4.0076,4.0103,4.0139,4.0248,4.0246,4.03,4.0319,4.0335,4.0346,4.0402,4.0426,4.0175,4.0175,4.0175,0,0,3.9977,3.9978,4.0012,4.0054,4.0062,4.0112,4.0021,4.0079,4.0115,4.0037,4.0112,4.0109,4.012,4.0216,4.0257,4.0217,4.0416,4.0348,4.0361,4.0364,4.0416,4.044,4.0461,4.0182,4.0181,4.018,0,0,4.0137,4.0144,4.022,4.023,4.0243,4.0225,4.0244,4.0244,4.0239,4.0314,4.0256,4.0298,4.0368,4.0378,4.0393,4.0557,4.051,4.057,4.0668,4.0723,4.0743,4.076,4.0817,4.0838,4.0583,4.0583,4.0583,0,4.0227,4.0302,4.0264,4.0325,4.0344,4.0277,4.0353,4.0364,4.0388,4.0402,4.0358,4.0444,4.0447,4.0542,4.0582,4.0597,4.0615,4.0569,4.0743,4.076,4.0776,4.0829,4.0851,4.059,4.0589,4.0588,4.0588,0,4.041,4.0463,4.0523,4.0548,4.0574,4.0643,4.0614,4.0645,4.0615,4.0601,4.0678,4.068,4.0714,4.0735,4.0706,4.0827,4.0801,4.0752,4.0671,4.0807,4.0857,4.0877,4.06,4.0598,4.0595,4.0594,0,0,4.0636,4.0641,4.0663,4.0674,4.0683,4.0723,4.0788,4.0822,4.0849,4.0868,4.092,4.0981,4.0934,4.0951,4.0922,4.0971,4.1099,4.0914,4.0914,4.0947,4.123,4.1267,4.1291,4.1068,4.1072,4.1075,4.1229,0,4.0792,4.0903,4.0871,4.0983,4.103,4.0967,4.1023,4.1035,4.1025,4.1063,4.105,4.1094,4.103,4.1039,4.1085,4.1074,4.1155,4.1062,4.1114,4.1117,4.1112,4.1317,4.1356,4.1501,4.1248,4.1251,4.1254,0,4.0987,4.1015,4.1131,4.1133,4.1151,4.1203,4.1231,4.1269,4.128,4.1269,4.1288,4.1249,4.1312,4.1233,4.1318,4.1256,4.1275,4.1273,4.1278,4.1279,4.1192,4.1323,4.1546,4.1567,4.1284,4.1282,4.1279,0,4.1138,4.1204,4.1282,4.1293,4.1298,4.1335,4.1338,4.1346,4.1368,4.1393,4.1407,4.1439,4.1456,4.1481,4.1451,4.1397,4.1539,4.1459,4.153,4.1531,4.1562,4.156,4.1789,4.1578,4.1578,4.1577,4.1577,0,4.1313,4.1387,4.135,4.1398,4.1478,4.144,4.152,4.1516,4.1523,4.1568,4.1516,4.1559,4.1518,4.1557,4.1534,4.1607,4.1615,4.1607,4.1599,4.161,4.1611,4.1621,4.161,4.1583,4.1582,4.158,4.158,0,4.1494,4.1473,4.1554,4.1552,4.1553,4.1612,4.1609,4.1652,4.1639,4.1696,4.1708,4.1686,4.1729,4.1703,4.1747,4.1731,4.1825,4.1805,4.1822,4.1815,4.1888,4.1881,4.213,4.216,4.1932,4.1934,4.1936,0,4.1606,4.1661,4.1666,4.1693,4.17,4.1744,4.1767,4.1732,4.1758,4.1776,4.1817,4.1856,4.1885,4.1957,4.1944,4.1977,4.1956,4.2041,4.1961,4.197,4.1955,4.1952,4.1957,4.2057,4.206,4.2062,4.2064,0,4.1807,4.1794,4.183,4.1863,4.1892,4.1916,4.1935,4.196,4.1925,4.1957,4.2001,4.2024,4.2069,4.2108,4.2136,4.2138,4.2095,4.209,4.2108,4.2118,4.2125,4.2121,4.1864,4.2084,4.2082,4.208,4.2079,4.2078,4.1955,4.2001,4.2011,4.2053,4.2064,4.2084,4.2124,4.2117,4.2153,4.2188,4.2165,4.2217,4.2226,4.226,4.2267,4.2306,4.2272,4.2298,4.2305,4.2311,4.2321,4.2121,4.2312,4.2311,4.231,4.231,4.2309,0,4.2152,4.2156,4.2195,4.2224,4.2257,4.2216,4.2235,4.2264,4.2311,4.2324,4.2355,4.2405,4.2443,4.2434,4.2467,4.2501,4.2482,4.251,4.2507,4.2508,4.235,4.2331,4.2525,4.2525,4.2525,4.2525,4.2525,4.2525,4.2258,4.2332,4.2321,4.24,4.2403,4.2455,4.2469,4.2486,4.2497,4.2556,4.2587,4.2582,4.2586,4.262,4.2652,4.2648,4.2662,4.2698,4.2687,4.254,4.2519,4.2498,4.2479,4.2702,4.2702,4.284,4.2842,4.2843]}]]